AIZ093 LLBG-LGIR

Flight info

Callsign AIZ093
Flight time N/A
Altitude 34000
Route SUVAS L53 STEPA M1 KAVOS UM1 SIT
Aircraft A320/M-SDE3FGHIRWY/LB1

Departure

Time 2026-05-01 13:13
Airport Ben Gurion International Airport (LLBG)

Arrival

Time N/A
Airport Heraklion International Nikos Kazantzakis Airport (LGIR)
Time Latitude Longitude Altitude Speed Heading
2026-05-01 12:41 32.00181 34.87342 117 ft 0 kts 53°
2026-05-01 12:44 32.00181 34.87341 120 ft 0 kts 53°
2026-05-01 13:01 32.00178 34.87336 116 ft 3 kts 55°
2026-05-01 13:02 32.00165 34.87309 115 ft 4 kts 64°
2026-05-01 13:07 31.99954 34.87525 119 ft 12 kts 114°
2026-05-01 13:07 32.00002 34.87602 118 ft 14 kts 31°
2026-05-01 13:07 32.00093 34.87665 116 ft 15 kts 31°
2026-05-01 13:08 32.00238 34.87767 119 ft 31 kts 32°
2026-05-01 13:08 32.00402 34.87884 120 ft 23 kts 31°
2026-05-01 13:08 32.00499 34.87953 120 ft 14 kts 29°
2026-05-01 13:08 32.00585 34.87924 120 ft 13 kts 357°
2026-05-01 13:09 32.00663 34.87973 117 ft 8 kts 32°
2026-05-01 13:09 32.00694 34.87996 119 ft 18 kts 31°
2026-05-01 13:09 32.00830 34.88092 115 ft 24 kts 31°
2026-05-01 13:09 32.00977 34.88195 117 ft 25 kts 31°
2026-05-01 13:10 32.01135 34.88309 119 ft 28 kts 32°
2026-05-01 13:10 32.01297 34.88440 117 ft 29 kts 41°
2026-05-01 13:10 32.01427 34.88627 118 ft 30 kts 60°
2026-05-01 13:10 32.01506 34.88856 117 ft 30 kts 80°
2026-05-01 13:11 32.01535 34.89079 118 ft 13 kts 81°
2026-05-01 13:11 32.01572 34.89165 119 ft 12 kts 24°
2026-05-01 13:11 32.01646 34.89148 118 ft 12 kts 347°
2026-05-01 13:11 32.01704 34.89134 118 ft 6 kts 349°
2026-05-01 13:12 32.01748 34.89099 116 ft 8 kts 277°
2026-05-01 13:12 32.01727 34.88971 120 ft 39 kts 259°
2026-05-01 13:12 32.01637 34.88385 121 ft 103 kts 259°
2026-05-01 13:12 32.01479 34.87347 120 ft 152 kts 259°
2026-05-01 13:13 32.01260 34.86037 492 ft 166 kts 259°
2026-05-01 13:13 32.00996 34.84704 1196 ft 167 kts 261°
2026-05-01 13:13 32.00714 34.83387 1949 ft 165 kts 259°
2026-05-01 13:13 32.00439 34.82071 2623 ft 165 kts 258°
2026-05-01 13:14 32.00177 34.80757 3254 ft 165 kts 257°
2026-05-01 13:14 31.99901 34.79391 3650 ft 180 kts 258°
2026-05-01 13:14 31.99587 34.77826 3884 ft 208 kts 258°
2026-05-01 13:14 31.99251 34.76081 4187 ft 234 kts 261°
2026-05-01 13:15 31.99357 34.74115 4666 ft 251 kts 288°
2026-05-01 13:15 31.99992 34.72130 5428 ft 259 kts 290°
2026-05-01 13:15 32.00628 34.70126 6250 ft 263 kts 289°
2026-05-01 13:15 32.01267 34.68092 7053 ft 266 kts 289°
2026-05-01 13:16 32.01909 34.66031 7731 ft 271 kts 289°
2026-05-01 13:16 32.02475 34.63903 8474 ft 272 kts 285°
2026-05-01 13:16 32.02982 34.61752 9345 ft 274 kts 284°
2026-05-01 13:17 32.04509 34.54885 10783 ft 315 kts 284°
2026-05-01 13:17 32.05073 34.52355 11402 ft 321 kts 284°
2026-05-01 13:18 32.06230 34.47221 12857 ft 327 kts 284°
2026-05-01 13:18 32.06815 34.44624 13599 ft 329 kts 284°
2026-05-01 13:18 32.07403 34.42012 14254 ft 331 kts 284°
2026-05-01 13:18 32.07993 34.39381 14877 ft 333 kts 284°
2026-05-01 13:19 32.08589 34.36726 15489 ft 336 kts 284°
2026-05-01 13:19 32.09190 34.34051 16104 ft 339 kts 284°
2026-05-01 13:19 32.10406 34.28641 17328 ft 344 kts 284°
2026-05-01 13:20 32.11020 34.25900 17924 ft 347 kts 284°
2026-05-01 13:20 32.11638 34.23137 18474 ft 350 kts 284°
2026-05-01 13:20 32.12260 34.20352 18995 ft 352 kts 284°
2026-05-01 13:21 32.13508 34.14736 20034 ft 356 kts 284°
2026-05-01 13:21 32.14138 34.11900 20548 ft 358 kts 284°
2026-05-01 13:21 32.14769 34.09055 21051 ft 360 kts 284°
2026-05-01 13:21 32.15404 34.06189 21541 ft 362 kts 284°
2026-05-01 13:22 32.16052 34.03270 22041 ft 364 kts 284°
2026-05-01 13:22 32.16701 34.00374 22525 ft 366 kts 285°
2026-05-01 13:22 32.17630 33.97569 22978 ft 369 kts 295°
2026-05-01 13:22 32.18764 33.94843 23463 ft 371 kts 295°
2026-05-01 13:23 32.19905 33.92101 23867 ft 373 kts 295°
2026-05-01 13:23 32.21050 33.89346 24257 ft 375 kts 295°
2026-05-01 13:23 32.22198 33.86577 24639 ft 376 kts 294°
2026-05-01 13:23 32.23349 33.83789 25000 ft 378 kts 294°
2026-05-01 13:24 32.24503 33.80991 25372 ft 380 kts 294°
2026-05-01 13:24 32.25663 33.78175 25735 ft 382 kts 294°
2026-05-01 13:24 32.26828 33.75351 26094 ft 384 kts 294°
2026-05-01 13:25 32.29171 33.69655 26794 ft 387 kts 294°
2026-05-01 13:25 32.30349 33.66785 27152 ft 389 kts 294°
2026-05-01 13:25 32.31532 33.63904 27512 ft 391 kts 294°
2026-05-01 13:25 32.32723 33.61006 27849 ft 392 kts 294°
2026-05-01 13:26 32.33917 33.58098 28196 ft 394 kts 294°
2026-05-01 13:26 32.35113 33.55178 28549 ft 395 kts 294°
2026-05-01 13:26 32.36314 33.52251 28899 ft 397 kts 294°
2026-05-01 13:26 32.37522 33.49303 29224 ft 398 kts 294°
2026-05-01 13:27 32.38729 33.46347 29543 ft 400 kts 294°
2026-05-01 13:27 32.39939 33.43379 29845 ft 402 kts 294°
2026-05-01 13:27 32.42376 33.37400 30370 ft 405 kts 294°
2026-05-01 13:28 32.44829 33.31370 30858 ft 408 kts 294°
2026-05-01 13:28 32.46057 33.28340 31116 ft 408 kts 294°
2026-05-01 13:29 32.48509 33.22302 31827 ft 405 kts 294°
2026-05-01 13:29 32.50949 33.16301 32508 ft 403 kts 293°
2026-05-01 13:30 32.55782 33.04357 33881 ft 399 kts 293°
2026-05-01 13:31 32.58148 32.98498 33977 ft 389 kts 293°
2026-05-01 13:32 32.63548 32.85071 33978 ft 386 kts 293°
2026-05-01 13:33 32.69297 32.70689 33974 ft 386 kts 293°
2026-05-01 13:34 32.73916 32.59142 33974 ft 386 kts 293°
2026-05-01 13:35 32.77360 32.50507 33974 ft 385 kts 292°
2026-05-01 13:36 32.80777 32.41861 33974 ft 385 kts 292°
2026-05-01 13:36 32.84208 32.33219 33977 ft 385 kts 292°
2026-05-01 13:37 32.86490 32.27452 33973 ft 385 kts 292°
2026-05-01 13:37 32.88763 32.21677 33973 ft 385 kts 292°
2026-05-01 13:38 32.92171 32.13014 33971 ft 385 kts 292°
2026-05-01 13:39 32.94446 32.07233 33986 ft 385 kts 292°
2026-05-01 13:39 32.96711 32.01454 33988 ft 385 kts 292°
2026-05-01 13:40 32.98972 31.95673 33985 ft 385 kts 292°
2026-05-01 13:40 33.01225 31.89900 33983 ft 384 kts 292°
2026-05-01 13:41 33.03477 31.84123 33979 ft 384 kts 292°
2026-05-01 13:41 33.05731 31.78349 33987 ft 384 kts 292°
2026-05-01 13:42 33.07978 31.72577 33985 ft 384 kts 292°
2026-05-01 13:42 33.10228 31.66767 33983 ft 383 kts 292°
2026-05-01 13:43 33.12459 31.60998 33982 ft 383 kts 292°
2026-05-01 13:43 33.14702 31.55227 33980 ft 383 kts 292°
2026-05-01 13:44 33.16933 31.49464 33980 ft 382 kts 292°
2026-05-01 13:44 33.19152 31.43699 34013 ft 382 kts 292°
2026-05-01 13:45 33.21367 31.37949 34003 ft 381 kts 292°
2026-05-01 13:45 33.23583 31.32194 33996 ft 381 kts 292°
2026-05-01 13:46 33.25786 31.26449 33990 ft 380 kts 292°
2026-05-01 13:46 33.27980 31.20704 33991 ft 380 kts 292°
2026-05-01 13:47 33.30173 31.14967 33986 ft 379 kts 292°
2026-05-01 13:47 33.32359 31.09240 33983 ft 379 kts 292°
2026-05-01 13:48 33.34539 31.03512 33973 ft 378 kts 292°
2026-05-01 13:48 33.36718 30.97790 33974 ft 378 kts 292°
2026-05-01 13:49 33.38893 30.92062 33981 ft 377 kts 292°
2026-05-01 13:49 33.41053 30.86349 33979 ft 377 kts 292°
2026-05-01 13:50 33.43215 30.80640 33976 ft 376 kts 292°
2026-05-01 13:50 33.45386 30.74902 33976 ft 376 kts 292°
2026-05-01 13:51 33.47537 30.69207 33970 ft 375 kts 292°
2026-05-01 13:51 33.49680 30.63503 33972 ft 375 kts 292°
2026-05-01 13:52 33.51823 30.57802 33966 ft 375 kts 292°
2026-05-01 13:52 33.53963 30.52107 33963 ft 375 kts 292°
2026-05-01 13:53 33.56099 30.46398 33959 ft 375 kts 292°
2026-05-01 13:53 33.59296 30.37841 33966 ft 375 kts 292°
2026-05-01 13:54 33.61426 30.32144 33970 ft 374 kts 292°
2026-05-01 13:54 33.63537 30.26449 33971 ft 373 kts 292°
2026-05-01 13:55 33.65654 30.20761 33970 ft 373 kts 292°
2026-05-01 13:55 33.67763 30.15077 33968 ft 373 kts 292°
2026-05-01 13:56 33.69869 30.09396 33976 ft 372 kts 292°
2026-05-01 13:56 33.71968 30.03721 33977 ft 371 kts 292°
2026-05-01 13:57 33.73717 29.98976 33970 ft 370 kts 292°
2026-05-01 13:57 33.76164 29.92374 33966 ft 370 kts 292°
2026-05-01 13:58 33.78258 29.86729 33964 ft 370 kts 292°
2026-05-01 13:58 33.80353 29.81086 33963 ft 369 kts 292°
2026-05-01 13:59 33.82433 29.75453 33968 ft 368 kts 292°
2026-05-01 13:59 33.84500 29.69825 33967 ft 367 kts 292°
2026-05-01 14:00 33.86565 29.64210 33969 ft 366 kts 292°
2026-05-01 14:00 33.88624 29.58607 33967 ft 366 kts 292°
2026-05-01 14:01 33.90675 29.53000 33969 ft 366 kts 292°
2026-05-01 14:01 33.92726 29.47394 33975 ft 365 kts 292°
2026-05-01 14:02 33.94766 29.41801 33976 ft 365 kts 292°
2026-05-01 14:02 33.96803 29.36213 33977 ft 364 kts 292°
2026-05-01 14:03 33.98840 29.30638 33971 ft 363 kts 292°
2026-05-01 14:03 34.00869 29.25058 33991 ft 363 kts 292°
2026-05-01 14:04 34.02892 29.19490 33999 ft 362 kts 292°
2026-05-01 14:04 34.04580 29.14839 33993 ft 361 kts 292°
2026-05-01 14:05 34.06584 29.09279 33977 ft 361 kts 292°
2026-05-01 14:05 34.08593 29.03732 33976 ft 361 kts 292°
2026-05-01 14:06 34.10598 28.98183 33983 ft 361 kts 292°
2026-05-01 14:06 34.11931 28.94470 33991 ft 360 kts 292°